Indianapolis, IN

1:13 PM EST on February 11, 2016 (GMT -0500)
North Fountain Square | | Change Station
CLOSE
Current Station
Personal Weather Station
Location: Indianapolis, IN
Elevation: 738 ft
Nearby Weather Stations

Elev 738 ft 39.76 °N, 86.14 °W | Updated 17 seconds ago

Clear
Clear
23.9 °F
Feels Like 24 °F
N
0.2
Wind Variable Wind from ENE
Gusts 2.5 mph

Today
High -- | Low -- °F
--% Chance of Precip.
Yesterday
High -- | Low -- °F
Precip. -- in
Pressure 30.33 in
Visibility 10.0 miles
Clouds Scattered Clouds 3400 ft
Windchill 24 °F
Dew Point -2 °F
Humidity 32%
Rainfall 0.00 in
Snow Depth Not available.
7:42 AM 6:15 PM
Waxing Crescent, 13% visible
METAR KIND 111754Z 24005KT 10SM SCT034 M06/M13 A3028 RMK AO2 SLP269 4/001 T10561133 11050 21128 50003
Pressure 30.33 in
Visibility 10.0 miles
Clouds Scattered Clouds 3400 ft
Windchill 24 °F
Dew Point -2 °F
Humidity 32%
Rainfall 0.00 in
Snow Depth Not available.
7:42 AM 6:15 PM
Waxing Crescent, 13% visible
METAR KIND 111754Z 24005KT 10SM SCT034 M06/M13 A3028 RMK AO2 SLP269 4/001 T10561133 11050 21128 50003

10-Day Weather Forecast

Almanac

Astronomy

Feb. 11, 2016 Rise Set
Actual Time
Civil Twilight
Nautical Twilight
Astronomical Twilight
Moon
Length of Visible Light
Length of Day
Tomorrow will be .
, % of the Moon is Illuminated

Today's Extremes

State Highs State Lows

Community

WunderPhotos

Upload Photos

1,892,122 photos uploaded!

WunderBlog® & News

Nearby

Air Quality

  Air Quality AQ Index Pollutant
Not available.

Snow Depth

Station Depth Elevation

Earthquake Activity

City Distance Mag. Time & Date
Minimum magnitude displayed is 2.5.

Coastal Water Temperatures

Place Temperature

Stations

Nearby Weather Stations

Station Location Temp. Windchill Dew Point Humidity Wind Precip. Elev Updated Type
                   

Watches & Warnings

There are currently no watches in effect.